Miscellaneous Local Product
Issued by NWS North Platte, NE

Home | Current Version | Previous Version | Text Only | Print | Product List | Glossary On
Versions: 1 2 3 4 5 6 7 8 9 10 11 12 13 14 15 16 17 18 19 20 21 22 23 24 25 26 27 28 29 30 31 32 33 34 35 36 37 38 39 40 41 42 43 44 45 46 47 48 49 50
000
AXUS43 KLBF 300210
MISLBF


WESTERN AND NORTH CENTRAL NEBRASKA HOURLY WEATHER ROUNDUP
NATIONAL WEATHER SERVICE NORTH PLATTE NE
900 PM CDT FRI AUG 29 2014

***STATIONS NOT REPORTING VARIABLES SUCH AS SKY/WEATHER OR
PRESSURE ARE PROVIDED BY THE NEBRASKA DEPARTMENT OF
ROADS...RAWS...AND APRS NETWORKS...AND ARE NOT UNDER
NATIONAL WEATHER SERVICE QUALITY CONTROL***

...OBSERVATIONS IN AND NEAR THE EASTERN PANHANDLE OF NEBRASKA...

CITY           SKY/WX    TMP DP  RH WIND       PRES   REMARKS
PINE RIDGE     CLEAR     63  56  78 CALM      30.00R
CHADRON        CLEAR     67  55  65 SE3       30.00R
ALLIANCE       CLEAR     65  54  67 E5        30.03R
SIDNEY         PTCLDY    67  52  58 NE7       30.07R
WHITECLAY        N/A     61  55  82 E3          N/A
RUSHVILLE        N/A     64  48  55 E7          N/A
GORDON           N/A     69  53  56 N5          N/A
CRESCENT LAKE    N/A     66  52  60 NE6         N/A
LISCO            N/A     73  53  49 N8          N/A
BIG SPRINGS      N/A     75  59  58 NE3         N/A
$$

...OBSERVATIONS IN NORTH CENTRAL NEBRASKA...

CITY           SKY/WX    TMP DP  RH WIND       PRES   REMARKS
VALENTINE      CLEAR     68  58  70 N7        29.96R
THEDFORD       PTCLDY    69  59  69 N6        29.99R
AINSWORTH      PTCLDY    67  57  71 N8        29.95R
O`NEILL        CLOUDY    69  65  87 NE13      29.91R
ORD            LGT RAIN  69  59  70 W6        29.89R
BROKEN BOW     LGT RAIN  62  59  90 VRB6      29.94F
SPRINGVIEW       N/A     68  60  75 W3          N/A
ROSE             N/A     70  67  90 W3          N/A
NEWPORT          N/A     69  65  90 W6          N/A
COMSTOCK         N/A     71  64  77 CALM        N/A
CHAMBERS         N/A     68  60  75 W3          N/A
EWING            N/A     63  60  91 NW15G32     N/A
$$

...OBSERVATIONS IN SOUTHWEST NEBRASKA AND FAR NORTHEAST COLORADO...

CITY           SKY/WX    TMP DP  RH WIND       PRES   REMARKS
WRAY             N/A     69  57  64 N7        30.01R
HOLYOKE        FAIR      70  59  68 NE7       30.03R
IMPERIAL       PTCLDY    69  59  70 N7        29.99R
OGALLALA       CLEAR     67  56  67 N9        30.00R
NORTH PLATTE   CLEAR     64  60  87 NW6       29.96R
MCCOOK         PTCLDY    72  62  71 NE5       29.92R
LEXINGTON      PTCLDY    69  65  86 NW5       29.92R
PAXTON           N/A     76  58  52 NW6         N/A
SUTHERLAND       N/A     76  61  59 N6          N/A
BRADY            N/A     70  60  70 CALM        N/A
GOTHENBURG       N/A     76  56  49 NW3         N/A
CALLAWAY         N/A     72  64  76 NW5         N/A
$$

...SOME WEATHER OBSERVATIONS FROM AROUND THE REGION...

CITY           SKY/WX    TMP DP  RH WIND       PRES   REMARKS
DENVER         CLOUDY    62  51  67 SE7       30.15R
LARAMIE        MOCLDY    58  49  72 E8        30.20R
CHEYENNE       MOCLDY    60  50  69 CALM      30.16S
SCOTTSBLUFF    CLEAR     67  59  75 E8        30.03R
RAPID CITY     CLEAR     63  53  70 NE6       30.00R
PIERRE         CLEAR     66  59  78 N8        29.90R
WINNER         FAIR      69  56  62 NW12      29.92R
SIOUX FALLS    CLOUDY    67  66  97 CALM      29.82R
OMAHA          MOCLDY    71  67  87 CALM      29.80R
GRAND ISLAND   CLEAR     69  66  90 N5        29.88R
KANSAS CITY    MOCLDY    69  67  93 S8        29.83R
WICHITA        PTCLDY    73  68  84 S8        29.86R
HAYS           CLEAR     75  55  50 NW3       29.89R
LIBERAL        CLEAR     79  50  36 E6        29.98R
GOODLAND       PTCLDY    68  56  65 CALM      30.01R
$$



USA.gov is the U.S. government's official web portal to all federal, state and local government web resources and services.